{"data":{"norad_id":67206,"epoch":"2026-05-24T22:45:46.800576Z","epoch_age_seconds":76527,"freshness":"FRESH","line1":"1 67206U 25304Q   26144.94845834  .00002637  00000+0  22870-3 0  9996","line2":"2 67206  70.0017 342.3340 0002771 266.4658  93.6184 14.98335036 25270","mean_motion":14.98335036,"eccentricity":0.0002771,"inclination_deg":70.0017,"raan_deg":342.334,"arg_perigee_deg":266.4658,"mean_anomaly_deg":93.6184,"bstar":0.0002287,"rev_number":2527,"period_min":96.106676103915,"perigee_km":570.11442343876,"apogee_km":573.96621170816,"semimajor_km":6950.1773175735,"source":"CELESTRAK","updated_at":"2026-05-25T13:38:21.510681Z"}}